[[{"header":{"parameterUnit":"m.s-1","parameterCategory":1,"la1":30.2991,"la2":30.254,"lo1":-89.0895,"lo2":-89.0444,"dy":0.0017,"dx":0.0017,"nx":28,"ny":28,"refTime":"2023-03-21T21:00:00:Z","depth":0,"parameterNumber":2,"parameterNumberName":"U-component_of_WINDS"},"data":[0,0,0,0,0,0,0,0,0,0,0,0,0,0,0,0,0,0,0,0,0,0,0,0,0,0,0,0,0,0,0,0,0,0,0,0,0,0,0,0,0,0,0,0,0,0,0,0,0,0,0,0,0,0,0,0,0,0,-3.4528,-3.4527,0,-3.4497,-3.4497,-3.4497,-3.4429,-3.4428,-3.4426,-3.4425,-3.4395,-3.4395,-3.4396,0,0,0,0,0,0,0,0,0,0,0,0,0,-3.4529,-3.453,-3.4528,-3.4527,-3.4527,-3.4497,-3.4497,-3.4496,-3.4429,-3.4427,-3.4426,-3.4424,-3.4395,-3.4395,-3.4396,0,0,0,0,0,0,0,0,0,0,0,0,0,-3.4517,-3.453,-3.4528,-3.449,-3.4486,-3.4497,-3.4497,-3.4496,-3.443,-3.4427,-3.4425,-3.4423,-3.4394,-3.4395,-3.4396,-3.4442,0,0,-3.4398,-3.4398,0,0,0,0,0,0,0,0,-3.4518,-3.4517,-3.4496,-3.4492,-3.4488,-3.4465,-3.4486,-3.4478,-3.443,-3.4451,-3.4425,-3.4422,-3.442,-3.4418,-3.4417,-3.4441,-3.4439,-3.4398,-3.4399,-3.4399,-3.4399,0,0,0,0,0,0,0,-3.4518,-3.4518,-3.4516,-3.4495,-3.4491,-3.4475,-3.4471,-3.4485,-3.4447,-3.4449,-3.4444,-3.4441,-3.4417,-3.4417,-3.4416,-3.4439,-3.4398,-3.4399,-3.4399,-3.44,-3.4499,-3.4501,0,0,0,0,0,0,-3.4525,-3.4519,-3.4517,-3.4515,-3.4498,-3.4477,-3.4472,-3.4474,-3.4447,-3.4441,-3.4443,-3.4438,-3.4416,-3.4415,-3.4415,-3.4466,-3.4399,-3.44,-3.44,-3.4497,-3.45,-3.4502,0,0,0,0,0,0,-3.4525,-3.4525,-3.4518,-3.4515,-3.4513,-3.4479,-3.4482,-3.4475,-3.4474,-3.4443,-3.4436,-3.4449,-3.4415,-3.4414,-3.4436,-3.4464,-3.44,-3.4401,-3.4494,-3.4498,-3.4501,-3.457,0,0,0,0,0,0,-3.4525,-3.4526,-3.4542,-3.4516,-3.4514,-3.4539,-3.4484,-3.4476,-3.4475,-3.4469,-3.4446,-3.4441,-3.4413,-3.4435,-3.4437,-3.4464,-3.4401,-3.4492,-3.4496,-3.45,-3.4565,-3.4576,-3.4585,0,0,0,0,0,-3.4526,-3.4563,-3.4543,-3.4543,-3.4533,-3.4541,-3.4539,-3.4506,-3.4478,-3.4494,-3.4475,-3.4441,-3.4462,-3.4438,-3.4439,-3.4467,-3.449,-3.4495,-3.4499,-3.4561,-3.4574,-3.4584,0,0,0,0,0,0,-3.4593,-3.4559,-3.4536,-3.4567,-3.4557,-3.4529,-3.4549,-3.4521,-3.4519,-3.4513,-3.4473,-3.4468,-3.4496,-3.4484,-3.4458,-3.4511,-3.447,-3.4476,-3.4517,-3.4529,-3.4538,-3.4539,-3.4402,0,0,0,0,0,-3.4611,-3.4619,-3.459,-3.4619,-3.4615,-3.4584,-3.4585,-3.4561,-3.4549,-3.4545,-3.4527,-3.4517,-3.4521,-3.4525,-3.4527,-3.4565,-3.4558,-3.4585,-3.4594,-3.4602,-3.4607,-3.4626,-3.4637,-3.4518,-3.4518,-3.4518,0,0,-3.4649,-3.4632,-3.4639,-3.4632,-3.4622,-3.4631,-3.458,-3.4592,-3.4599,-3.4547,-3.4566,-3.4553,-3.454,-3.457,-3.4582,-3.4561,-3.4639,-3.4609,-3.4615,-3.4615,-3.4632,-3.4643,-3.4653,-3.4522,-3.4521,-3.4521,0,0,-3.4722,-3.4711,-3.4733,-3.4725,-3.471,-3.4688,-3.4694,-3.4671,-3.466,-3.4679,-3.464,-3.4649,-3.4657,-3.4649,-3.4646,-3.4719,-3.4688,-3.4721,-3.477,-3.4789,-3.4799,-3.4807,-3.4832,-3.4841,-3.4726,-3.4727,-3.4727,0,-3.4771,-3.4783,-3.4749,-3.4764,-3.4762,-3.4716,-3.4739,-3.4732,-3.472,-3.472,-3.4696,-3.4706,-3.4694,-3.4721,-3.4739,-3.4739,-3.4744,-3.4722,-3.48,-3.4808,-3.4815,-3.4838,-3.4848,-3.473,-3.473,-3.473,-3.4729,0,-3.4844,-3.4853,-3.4874,-3.4862,-3.4863,-3.4882,-3.4851,-3.4857,-3.4834,-3.4815,-3.4836,-3.482,-3.4818,-3.4824,-3.4801,-3.4848,-3.4835,-3.4807,-3.4765,-3.483,-3.4852,-3.4861,-3.4736,-3.4735,-3.4734,-3.4733,0,0,-3.4955,-3.4926,-3.4934,-3.4928,-3.491,-3.4916,-3.4935,-3.4933,-3.4938,-3.4932,-3.4945,-3.4954,-3.4928,-3.4925,-3.4902,-3.4919,-3.4977,-3.4888,-3.4887,-3.4904,-3.5027,-3.5047,-3.5058,-3.4958,-3.4959,-3.496,-3.5028,0,-3.5023,-3.505,-3.5021,-3.5054,-3.5063,-3.5021,-3.5036,-3.5027,-3.5011,-3.5017,-3.5,-3.5006,-3.4972,-3.4969,-3.4985,-3.4966,-3.5001,-3.4962,-3.4969,-3.497,-3.4971,-3.5069,-3.509,-3.5154,-3.5036,-3.5037,-3.5038,0,-3.5104,-3.5101,-3.5136,-3.5116,-3.5118,-3.5133,-3.5129,-3.5135,-3.5124,-3.5112,-3.511,-3.5082,-3.5098,-3.506,-3.5082,-3.5056,-3.5059,-3.5051,-3.5052,-3.505,-3.5006,-3.5067,-3.5174,-3.5183,-3.5051,-3.505,-3.5049,0,-3.518,-3.5185,-3.5206,-3.5203,-3.5181,-3.5192,-3.5184,-3.5171,-3.5172,-3.517,-3.517,-3.517,-3.517,-3.5171,-3.5144,-3.5119,-3.517,-3.5129,-3.5159,-3.516,-3.517,-3.5169,-3.5276,-3.5175,-3.5175,-3.5175,-3.5175,0,-3.5256,-3.5279,-3.524,-3.5253,-3.5277,-3.5245,-3.527,-3.5257,-3.5247,-3.5257,-3.5222,-3.5232,-3.5197,-3.5204,-3.5184,-3.5205,-3.5206,-3.5196,-3.519,-3.5198,-3.5199,-3.5196,-3.5191,-3.5177,-3.5177,-3.5176,-3.5176,0,-3.5344,-3.5319,-3.5339,-3.5317,-3.5313,-3.5331,-3.5313,-3.5324,-3.5307,-3.532,-3.5322,-3.5295,-3.5301,-3.5276,-3.5278,-3.5264,-3.5296,-3.5284,-3.5299,-3.5294,-3.5325,-3.5322,-3.5432,-3.5445,-3.5339,-3.534,-3.5341,0,-3.5393,-3.5409,-3.539,-3.5394,-3.5387,-3.5394,-3.5395,-3.5365,-3.5368,-3.5358,-3.5371,-3.5375,-3.5376,-3.5388,-3.5369,-3.5371,-3.5357,-3.5396,-3.5357,-3.5365,-3.5356,-3.5354,-3.5355,-3.5403,-3.5405,-3.5406,-3.5407,0,-3.5483,-3.547,-3.5473,-3.5472,-3.5475,-3.5472,-3.5468,-3.5474,-3.5441,-3.5446,-3.5453,-3.5454,-3.5457,-3.5461,-3.5459,-3.5451,-3.5423,-3.542,-3.5426,-3.5433,-3.5441,-3.5435,-3.5319,-3.5416,-3.5415,-3.5415,-3.5414,-3.5414,-3.5551,-3.5564,-3.5552,-3.5556,-3.555,-3.5547,-3.5557,-3.5542,-3.5546,-3.5545,-3.5528,-3.5538,-3.5529,-3.5523,-3.5518,-3.5526,-3.5508,-3.5518,-3.552,-3.5522,-3.5527,-3.5442,-3.5526,-3.5525,-3.5525,-3.5525,-3.5525,0,-3.5637,-3.5628,-3.5633,-3.5628,-3.5632,-3.5607,-3.5602,-3.5606,-3.5615,-3.5609,-3.5611,-3.5619,-3.5623,-3.5606,-3.5608,-3.5617,-3.5605,-3.5619,-3.5616,-3.5615,-3.5544,-3.5537,-3.5629,-3.5629,-3.5629,-3.5629,-3.5629,-3.5629,-3.5682,-3.5702,-3.5688,-3.5705,-3.5696,-3.5705,-3.5704,-3.5701,-3.5696,-3.5706,-3.571,-3.5698,-3.5688,-3.5689,-3.5692,-3.5687,-3.5688,-3.5706,-3.5697,-3.563,-3.562,-3.561,-3.5603,-3.5708,-3.5708,-3.5767,-3.5767,-3.5768]},{"header":{"parameterUnit":"m.s-1","parameterCategory":1,"la1":30.2991,"la2":30.254,"lo1":-89.0895,"lo2":-89.0444,"dy":0.0017,"dx":0.0017,"nx":28,"ny":28,"refTime":"2023-03-21T21:00:00:Z","depth":0,"parameterNumber":3,"parameterNumberName":"V-component_of_WINDS"},"data":[0,0,0,0,0,0,0,0,0,0,0,0,0,0,0,0,0,0,0,0,0,0,0,0,0,0,0,0,0,0,0,0,0,0,0,0,0,0,0,0,0,0,0,0,0,0,0,0,0,0,0,0,0,0,0,0,0,0,1.8424,1.8425,0,1.8504,1.8504,1.8505,1.8554,1.8555,1.8555,1.8555,1.8635,1.8637,1.8639,0,0,0,0,0,0,0,0,0,0,0,0,0,1.8317,1.8319,1.8424,1.8425,1.8426,1.8503,1.8504,1.8506,1.8554,1.8555,1.8555,1.8555,1.8635,1.8637,1.8639,0,0,0,0,0,0,0,0,0,0,0,0,0,1.8377,1.832,1.8424,1.846,1.8464,1.8503,1.8505,1.8506,1.8554,1.8555,1.8555,1.8555,1.8634,1.8637,1.864,1.8649,0,0,1.8648,1.8649,0,0,0,0,0,0,0,0,1.8373,1.8381,1.8454,1.8458,1.8462,1.852,1.8496,1.8554,1.8554,1.852,1.8555,1.8556,1.8596,1.8602,1.8616,1.8653,1.8656,1.8648,1.865,1.8651,1.8652,0,0,0,0,0,0,0,1.8369,1.8378,1.8456,1.8455,1.846,1.8473,1.8482,1.8507,1.8555,1.8523,1.8527,1.8535,1.8599,1.8613,1.8619,1.8658,1.8648,1.8651,1.8653,1.8654,1.871,1.871,0,0,0,0,0,0,1.8359,1.8374,1.8453,1.8458,1.8418,1.8474,1.8484,1.8501,1.8555,1.8563,1.8535,1.8537,1.8608,1.8615,1.8622,1.8639,1.8651,1.8654,1.8656,1.871,1.871,1.871,0,0,0,0,0,0,1.8357,1.8366,1.845,1.8417,1.8429,1.8476,1.8494,1.8502,1.8517,1.8564,1.8573,1.8541,1.8609,1.8618,1.8643,1.8642,1.8655,1.8658,1.8711,1.871,1.871,1.8672,0,0,0,0,0,0,1.8354,1.8365,1.8368,1.8417,1.843,1.8469,1.8494,1.8503,1.8522,1.8525,1.8572,1.858,1.861,1.8638,1.8646,1.8647,1.866,1.8711,1.8711,1.871,1.8674,1.867,1.8668,0,0,0,0,0,1.835,1.8353,1.8368,1.8377,1.8436,1.8469,1.8477,1.8511,1.8521,1.8526,1.8557,1.8579,1.8641,1.8641,1.8649,1.8651,1.8711,1.8711,1.871,1.8675,1.8671,1.8668,0,0,0,0,0,0,1.8302,1.836,1.8377,1.8397,1.8428,1.8477,1.8484,1.8506,1.8534,1.8536,1.8578,1.8588,1.861,1.8633,1.8631,1.8665,1.8679,1.868,1.8649,1.8646,1.8643,1.8637,1.8663,0,0,0,0,0,1.8294,1.8316,1.8366,1.8378,1.8393,1.8436,1.8451,1.8476,1.8509,1.8523,1.8555,1.8587,1.8615,1.8631,1.8659,1.8677,1.869,1.8683,1.868,1.8678,1.8678,1.8693,1.8691,1.8708,1.8708,1.8708,0,0,1.8277,1.8312,1.8323,1.837,1.8397,1.842,1.8446,1.8468,1.8487,1.8526,1.8553,1.8578,1.8617,1.8639,1.8651,1.8659,1.8677,1.8677,1.8675,1.8677,1.8692,1.8691,1.8689,1.8708,1.8708,1.8708,0,0,1.8259,1.8286,1.8302,1.8329,1.837,1.8399,1.8402,1.8449,1.8468,1.8496,1.8527,1.8549,1.8594,1.8621,1.8641,1.8637,1.8659,1.8645,1.863,1.8644,1.8642,1.8641,1.8642,1.8641,1.8645,1.8645,1.8645,0,1.8233,1.8268,1.8306,1.8328,1.8349,1.8387,1.8404,1.8428,1.8475,1.8489,1.8498,1.8558,1.8586,1.8618,1.8617,1.8631,1.8638,1.864,1.8639,1.8639,1.8639,1.864,1.8639,1.8643,1.8644,1.8644,1.8644,0,1.8236,1.826,1.8268,1.8314,1.8336,1.8354,1.8396,1.8414,1.8437,1.8465,1.8494,1.8531,1.8567,1.8577,1.8598,1.8612,1.8616,1.8631,1.8646,1.8634,1.8636,1.8637,1.8641,1.8641,1.8642,1.8642,0,0,1.8188,1.8258,1.826,1.8283,1.8332,1.8352,1.8374,1.8411,1.8426,1.8459,1.8479,1.8518,1.8534,1.8557,1.8582,1.8594,1.8592,1.8609,1.8611,1.8606,1.8612,1.86,1.86,1.8607,1.8607,1.8607,1.8609,0,1.8178,1.8219,1.8255,1.8283,1.8308,1.8346,1.8366,1.8399,1.8427,1.8452,1.8483,1.8511,1.8528,1.8543,1.8556,1.8589,1.8594,1.859,1.8628,1.8628,1.8617,1.8601,1.8588,1.8587,1.861,1.861,1.861,0,1.8172,1.8204,1.8235,1.8285,1.8297,1.8314,1.8352,1.8376,1.8415,1.8435,1.8462,1.8489,1.8516,1.8528,1.8566,1.8563,1.8581,1.86,1.8601,1.8606,1.8619,1.8607,1.8588,1.8588,1.8611,1.8611,1.8611,0,1.8136,1.8188,1.8214,1.8232,1.829,1.8302,1.8327,1.8367,1.8388,1.8422,1.8436,1.8472,1.8492,1.852,1.8558,1.8563,1.8593,1.8608,1.8611,1.861,1.8615,1.8614,1.86,1.8625,1.8625,1.8625,1.8625,0,1.8122,1.814,1.8199,1.8215,1.8237,1.8279,1.83,1.8328,1.8364,1.8387,1.8422,1.8443,1.8491,1.8519,1.8548,1.8577,1.8585,1.8602,1.861,1.86,1.8598,1.8612,1.8614,1.8625,1.8625,1.8625,1.8625,0,1.8086,1.8126,1.8157,1.8211,1.8225,1.8239,1.8286,1.8304,1.8335,1.8364,1.8373,1.8421,1.8456,1.8496,1.8543,1.8563,1.859,1.86,1.8576,1.8581,1.8583,1.8582,1.8578,1.858,1.8602,1.8602,1.8602,0,1.8075,1.809,1.8146,1.8165,1.8189,1.8218,1.824,1.8283,1.8305,1.8353,1.8365,1.8403,1.8435,1.8488,1.8528,1.8565,1.8577,1.8574,1.8583,1.8573,1.8579,1.8578,1.8581,1.8571,1.857,1.857,1.857,0,1.8051,1.8071,1.8102,1.8141,1.8167,1.8199,1.8233,1.8246,1.8296,1.8319,1.8355,1.838,1.843,1.8467,1.8509,1.8536,1.8562,1.8567,1.857,1.8559,1.8545,1.8555,1.857,1.8566,1.8567,1.8567,1.8567,1.8567,1.8029,1.8045,1.8088,1.8122,1.8152,1.8184,1.8204,1.8239,1.8269,1.8313,1.8337,1.8373,1.8415,1.8475,1.8501,1.8531,1.854,1.8543,1.8545,1.8545,1.8543,1.854,1.8539,1.8539,1.8539,1.8539,1.8539,0,1.8009,1.8039,1.807,1.8117,1.8144,1.8167,1.8206,1.8228,1.8259,1.8296,1.8328,1.8371,1.8408,1.8451,1.8492,1.8507,1.852,1.8516,1.8516,1.8522,1.8532,1.8526,1.8505,1.8505,1.8505,1.8505,1.8505,1.8505,1.8001,1.8031,1.8056,1.8102,1.8132,1.8169,1.8189,1.8219,1.825,1.8296,1.8327,1.8356,1.8396,1.844,1.8476,1.8488,1.8502,1.8495,1.851,1.8518,1.8521,1.8524,1.8519,1.8497,1.8497,1.8498,1.8498,1.8498]}]]